owner,sensor,date,latitude,longitude,air_temperature,qcFlag 
COMPS,ioos:station:USF.COMPS:C10:1,2012-07-01T00:00:00Z,27.1690,-82.9260,27.76,1111122 
COMPS,ioos:station:USF.COMPS:C10:1,2012-07-01T00:20:00Z,27.1690,-82.9260,27.57,1111122 
COMPS,ioos:station:USF.COMPS:C10:1,2012-07-01T00:40:00Z,27.1690,-82.9260,27.56,1111122 
COMPS,ioos:station:USF.COMPS:C10:1,2012-07-01T01:00:00Z,27.1690,-82.9260,27.5,1111122 
COMPS,ioos:station:USF.COMPS:C10:1,2012-07-01T01:20:00Z,27.1690,-82.9260,27.51,1111122 
COMPS,ioos:station:USF.COMPS:C10:1,2012-07-01T01:40:00Z,27.1690,-82.9260,27.52,1111122 
COMPS,ioos:station:USF.COMPS:C10:1,2012-07-01T02:00:00Z,27.1690,-82.9260,27.5,1111122 
COMPS,ioos:station:USF.COMPS:C10:1,2012-07-01T02:20:00Z,27.1690,-82.9260,27.43,1111122 
COMPS,ioos:station:USF.COMPS:C10:1,2012-07-01T02:40:00Z,27.1690,-82.9260,27.46,1111122 
COMPS,ioos:station:USF.COMPS:C10:1,2012-07-01T03:00:00Z,27.1690,-82.9260,27.48,1111122 
COMPS,ioos:station:USF.COMPS:C10:1,2012-07-01T03:20:00Z,27.1690,-82.9260,27.48,1111122 
COMPS,ioos:station:USF.COMPS:C10:1,2012-07-01T03:40:00Z,27.1690,-82.9260,27.44,1111122 
COMPS,ioos:station:USF.COMPS:C10:1,2012-07-01T04:00:00Z,27.1690,-82.9260,27.39,1111122 
COMPS,ioos:station:USF.COMPS:C10:1,2012-07-01T04:20:00Z,27.1690,-82.9260,27.38,1111122 
COMPS,ioos:station:USF.COMPS:C10:1,2012-07-01T04:40:00Z,27.1690,-82.9260,27.36,1111122 
COMPS,ioos:station:USF.COMPS:C10:1,2012-07-01T05:00:00Z,27.1690,-82.9260,27.33,1111122 
COMPS,ioos:station:USF.COMPS:C10:1,2012-07-01T05:20:00Z,27.1690,-82.9260,27.38,1111122 
COMPS,ioos:station:USF.COMPS:C10:1,2012-07-01T05:40:00Z,27.1690,-82.9260,27.25,1111122 
COMPS,ioos:station:USF.COMPS:C10:1,2012-07-01T06:00:00Z,27.1690,-82.9260,27.27,1111122 
COMPS,ioos:station:USF.COMPS:C10:1,2012-07-01T06:20:00Z,27.1690,-82.9260,27.24,1111122 
COMPS,ioos:station:USF.COMPS:C10:1,2012-07-01T06:40:00Z,27.1690,-82.9260,27.22,1111122 
COMPS,ioos:station:USF.COMPS:C10:1,2012-07-01T07:00:00Z,27.1690,-82.9260,27.18,1111122 
COMPS,ioos:station:USF.COMPS:C10:1,2012-07-01T12:20:00Z,27.1690,-82.9260,7.3,1111122 
COMPS,ioos:station:USF.COMPS:C10:1,2012-07-01T12:40:00Z,27.1690,-82.9260,7.0,1111122 
COMPS,ioos:station:USF.COMPS:C10:1,2012-07-01T13:20:00Z,27.1690,-82.9260,7.0,1111122 
COMPS,ioos:station:USF.COMPS:C10:1,2012-07-01T13:40:00Z,27.1690,-82.9260,7.0,1111122 
COMPS,ioos:station:USF.COMPS:C10:1,2012-07-01T14:00:00Z,27.1690,-82.9260,7.0,1111122 
COMPS,ioos:station:USF.COMPS:C10:1,2012-07-01T14:20:00Z,27.1690,-82.9260,27.5,1111122 
COMPS,ioos:station:USF.COMPS:C10:1,2012-07-01T14:40:00Z,27.1690,-82.9260,7.0,1111122 
COMPS,ioos:station:USF.COMPS:C10:1,2012-07-01T15:00:00Z,27.1690,-82.9260,7.0,1111122 
COMPS,ioos:station:USF.COMPS:C10:1,2012-07-01T15:20:00Z,27.1690,-82.9260,7.0,1111122 
COMPS,ioos:station:USF.COMPS:C10:1,2012-07-01T15:40:00Z,27.1690,-82.9260,7.0,1111122 
COMPS,ioos:station:USF.COMPS:C10:1,2012-07-01T22:40:00Z,27.1690,-82.9260,7.0,1111122 
COMPS,ioos:station:USF.COMPS:C10:1,2012-07-03T13:20:00Z,27.1690,-82.9260,7.0,1111122 
COMPS,ioos:station:USF.COMPS:C10:1,2012-07-03T13:40:00Z,27.1690,-82.9260,7.0,1111122 
COMPS,ioos:station:USF.COMPS:C10:1,2012-07-03T14:20:00Z,27.1690,-82.9260,7.69,1111122 
COMPS,ioos:station:USF.COMPS:C10:1,2012-07-03T14:40:00Z,27.1690,-82.9260,27.92,1111122 
COMPS,ioos:station:USF.COMPS:C10:1,2012-07-03T15:00:00Z,27.1690,-82.9260,7.9,1111122 
COMPS,ioos:station:USF.COMPS:C10:1,2012-07-03T15:20:00Z,27.1690,-82.9260,7.0,1111122 
COMPS,ioos:station:USF.COMPS:C10:1,2012-07-03T15:40:00Z,27.1690,-82.9260,7.0,1111122 
COMPS,ioos:station:USF.COMPS:C10:1,2012-07-03T21:00:00Z,27.1690,-82.9260,8.0,1111122 
COMPS,ioos:station:USF.COMPS:C10:1,2012-07-03T21:20:00Z,27.1690,-82.9260,8.31,1111122 
COMPS,ioos:station:USF.COMPS:C10:1,2012-07-03T21:40:00Z,27.1690,-82.9260,8.0,1111122 
COMPS,ioos:station:USF.COMPS:C10:1,2012-07-03T22:00:00Z,27.1690,-82.9260,8.0,1111122 
COMPS,ioos:station:USF.COMPS:C10:1,2012-07-03T22:20:00Z,27.1690,-82.9260,28.0,1111122 
COMPS,ioos:station:USF.COMPS:C10:1,2012-07-03T23:00:00Z,27.1690,-82.9260,7.0,1111122 
COMPS,ioos:station:USF.COMPS:C10:1,2012-07-04T19:20:00Z,27.1690,-82.9260,8.0,1111122 
COMPS,ioos:station:USF.COMPS:C10:1,2012-07-04T20:20:00Z,27.1690,-82.9260,8.0,1111122 
COMPS,ioos:station:USF.COMPS:C10:1,2012-07-04T20:40:00Z,27.1690,-82.9260,29.0,1111122 
COMPS,ioos:station:USF.COMPS:C10:1,2012-07-04T21:00:00Z,27.1690,-82.9260,29.0,1111122 
COMPS,ioos:station:USF.COMPS:C10:1,2012-07-10T22:00:00Z,27.1690,-82.9260,9.0,1111122 
COMPS,ioos:station:USF.COMPS:C10:1,2012-07-11T17:40:00Z,27.1690,-82.9260,27.65,1111122 
COMPS,ioos:station:USF.COMPS:C10:1,2012-07-11T18:00:00Z,27.1690,-82.9260,27.61,1111122 
COMPS,ioos:station:USF.COMPS:C10:1,2012-07-11T18:20:00Z,27.1690,-82.9260,27.52,1111122 
COMPS,ioos:station:USF.COMPS:C10:1,2012-07-11T18:40:00Z,27.1690,-82.9260,27.8,1111122 
COMPS,ioos:station:USF.COMPS:C10:1,2012-07-11T19:00:00Z,27.1690,-82.9260,27.74,1111122 
COMPS,ioos:station:USF.COMPS:C10:1,2012-07-11T19:20:00Z,27.1690,-82.9260,27.8,1111122 
COMPS,ioos:station:USF.COMPS:C10:1,2012-07-11T19:40:00Z,27.1690,-82.9260,27.84,1111122 
COMPS,ioos:station:USF.COMPS:C10:1,2012-07-11T20:00:00Z,27.1690,-82.9260,28.1,1111122 
COMPS,ioos:station:USF.COMPS:C10:1,2012-07-11T20:20:00Z,27.1690,-82.9260,28.09,1111122 
COMPS,ioos:station:USF.COMPS:C10:1,2012-07-11T20:40:00Z,27.1690,-82.9260,27.99,1111122 
COMPS,ioos:station:USF.COMPS:C10:1,2012-07-11T21:00:00Z,27.1690,-82.9260,28.24,1111122 
COMPS,ioos:station:USF.COMPS:C10:1,2012-07-11T21:20:00Z,27.1690,-82.9260,29.37,1111122 
COMPS,ioos:station:USF.COMPS:C10:1,2012-07-11T21:40:00Z,27.1690,-82.9260,28.8,1111122 
COMPS,ioos:station:USF.COMPS:C10:1,2012-07-11T22:00:00Z,27.1690,-82.9260,27.81,1111122 
COMPS,ioos:station:USF.COMPS:C10:1,2012-07-11T22:20:00Z,27.1690,-82.9260,27.04,1111122 
COMPS,ioos:station:USF.COMPS:C10:1,2012-07-11T22:40:00Z,27.1690,-82.9260,27.38,1111122 
COMPS,ioos:station:USF.COMPS:C10:1,2012-07-12T00:00:00Z,27.1690,-82.9260,27.64,1111122 
COMPS,ioos:station:USF.COMPS:C10:1,2012-07-12T00:20:00Z,27.1690,-82.9260,27.53,1111122 
COMPS,ioos:station:USF.COMPS:C10:1,2012-07-12T00:40:00Z,27.1690,-82.9260,27.34,1111122 
COMPS,ioos:station:USF.COMPS:C10:1,2012-07-12T01:00:00Z,27.1690,-82.9260,27.38,1111122 
COMPS,ioos:station:USF.COMPS:C10:1,2012-07-12T01:20:00Z,27.1690,-82.9260,27.51,1111122 
COMPS,ioos:station:USF.COMPS:C10:1,2012-07-12T01:40:00Z,27.1690,-82.9260,27.59,1111122 
COMPS,ioos:station:USF.COMPS:C10:1,2012-07-12T02:00:00Z,27.1690,-82.9260,27.75,1111122 
COMPS,ioos:station:USF.COMPS:C10:1,2012-07-12T02:20:00Z,27.1690,-82.9260,27.83,1111122 
COMPS,ioos:station:USF.COMPS:C10:1,2012-07-12T02:40:00Z,27.1690,-82.9260,27.77,1111122 
COMPS,ioos:station:USF.COMPS:C10:1,2012-07-12T03:00:00Z,27.1690,-82.9260,27.22,1111122 
COMPS,ioos:station:USF.COMPS:C10:1,2012-07-12T03:20:00Z,27.1690,-82.9260,27.0,1111122 
COMPS,ioos:station:USF.COMPS:C10:1,2012-07-12T03:40:00Z,27.1690,-82.9260,27.19,1111122 
COMPS,ioos:station:USF.COMPS:C10:1,2012-07-12T04:00:00Z,27.1690,-82.9260,27.22,1111122 
COMPS,ioos:station:USF.COMPS:C10:1,2012-07-12T04:20:00Z,27.1690,-82.9260,27.07,1111122 
COMPS,ioos:station:USF.COMPS:C10:1,2012-07-12T04:40:00Z,27.1690,-82.9260,27.08,1111122 
COMPS,ioos:station:USF.COMPS:C10:1,2012-07-12T05:00:00Z,27.1690,-82.9260,26.85,1111122 
COMPS,ioos:station:USF.COMPS:C10:1,2012-07-12T05:20:00Z,27.1690,-82.9260,26.56,1111122 
COMPS,ioos:station:USF.COMPS:C10:1,2012-07-12T05:40:00Z,27.1690,-82.9260,26.32,1111122 
COMPS,ioos:station:USF.COMPS:C10:1,2012-07-12T06:00:00Z,27.1690,-82.9260,26.32,1111122 
COMPS,ioos:station:USF.COMPS:C10:1,2012-07-12T06:40:00Z,27.1690,-82.9260,26.76,1111122 
COMPS,ioos:station:USF.COMPS:C10:1,2012-07-12T07:00:00Z,27.1690,-82.9260,26.76,1111122 
COMPS,ioos:station:USF.COMPS:C10:1,2012-07-12T14:40:00Z,27.1690,-82.9260,28.0,1111122 
COMPS,ioos:station:USF.COMPS:C10:1,2012-07-12T15:00:00Z,27.1690,-82.9260,27.53,1111122 
COMPS,ioos:station:USF.COMPS:C10:1,2012-07-12T15:20:00Z,27.1690,-82.9260,27.73,1111122 
COMPS,ioos:station:USF.COMPS:C10:1,2012-07-12T15:40:00Z,27.1690,-82.9260,27.59,1111122 
COMPS,ioos:station:USF.COMPS:C10:1,2012-07-12T16:00:00Z,27.1690,-82.9260,27.8,1111122 
COMPS,ioos:station:USF.COMPS:C10:1,2012-07-12T16:20:00Z,27.1690,-82.9260,27.95,1111122 
COMPS,ioos:station:USF.COMPS:C10:1,2012-07-12T16:40:00Z,27.1690,-82.9260,27.93,1111122 
COMPS,ioos:station:USF.COMPS:C10:1,2012-07-12T17:00:00Z,27.1690,-82.9260,27.83,1111122 
COMPS,ioos:station:USF.COMPS:C10:1,2012-07-12T17:20:00Z,27.1690,-82.9260,27.9,1111122 
COMPS,ioos:station:USF.COMPS:C10:1,2012-07-12T17:40:00Z,27.1690,-82.9260,27.93,1111122 
COMPS,ioos:station:USF.COMPS:C10:1,2012-07-12T18:00:00Z,27.1690,-82.9260,28.17,1111122 
COMPS,ioos:station:USF.COMPS:C10:1,2012-07-12T18:20:00Z,27.1690,-82.9260,28.3,1111122 
COMPS,ioos:station:USF.COMPS:C10:1,2012-07-12T18:40:00Z,27.1690,-82.9260,28.31,1111122 
COMPS,ioos:station:USF.COMPS:C10:1,2012-07-12T19:00:00Z,27.1690,-82.9260,28.32,1111122 
COMPS,ioos:station:USF.COMPS:C10:1,2012-07-12T19:20:00Z,27.1690,-82.9260,28.91,1111122 
COMPS,ioos:station:USF.COMPS:C10:1,2012-07-12T19:40:00Z,27.1690,-82.9260,28.52,1111122 
COMPS,ioos:station:USF.COMPS:C10:1,2012-07-12T20:00:00Z,27.1690,-82.9260,28.69,1111122 
COMPS,ioos:station:USF.COMPS:C10:1,2012-07-12T20:20:00Z,27.1690,-82.9260,28.69,1111122 
COMPS,ioos:station:USF.COMPS:C10:1,2012-07-12T20:40:00Z,27.1690,-82.9260,28.79,1111122 
COMPS,ioos:station:USF.COMPS:C10:1,2012-07-12T21:00:00Z,27.1690,-82.9260,29.14,1111122 
COMPS,ioos:station:USF.COMPS:C10:1,2012-07-12T21:20:00Z,27.1690,-82.9260,29.24,1111122 
COMPS,ioos:station:USF.COMPS:C10:1,2012-07-12T21:40:00Z,27.1690,-82.9260,28.98,1111122 
COMPS,ioos:station:USF.COMPS:C10:1,2012-07-12T22:00:00Z,27.1690,-82.9260,29.68,1111122 
COMPS,ioos:station:USF.COMPS:C10:1,2012-07-12T22:20:00Z,27.1690,-82.9260,29.8,1111122 
COMPS,ioos:station:USF.COMPS:C10:1,2012-07-12T22:40:00Z,27.1690,-82.9260,29.28,1111122 
COMPS,ioos:station:USF.COMPS:C10:1,2012-07-12T23:00:00Z,27.1690,-82.9260,29.17,1111122 
COMPS,ioos:station:USF.COMPS:C10:1,2012-07-12T23:20:00Z,27.1690,-82.9260,29.15,1111122 
COMPS,ioos:station:USF.COMPS:C10:1,2012-07-12T23:40:00Z,27.1690,-82.9260,28.33,1111122 
COMPS,ioos:station:USF.COMPS:C10:1,2012-07-13T00:00:00Z,27.1690,-82.9260,28.38,1111122 
COMPS,ioos:station:USF.COMPS:C10:1,2012-07-13T00:20:00Z,27.1690,-82.9260,27.8,1111122 
COMPS,ioos:station:USF.COMPS:C10:1,2012-07-13T00:40:00Z,27.1690,-82.9260,27.44,1111122 
COMPS,ioos:station:USF.COMPS:C10:1,2012-07-13T01:00:00Z,27.1690,-82.9260,27.12,1111122 
COMPS,ioos:station:USF.COMPS:C10:1,2012-07-13T01:20:00Z,27.1690,-82.9260,27.19,1111122 
COMPS,ioos:station:USF.COMPS:C10:1,2012-07-13T01:40:00Z,27.1690,-82.9260,27.89,1111122 
COMPS,ioos:station:USF.COMPS:C10:1,2012-07-13T02:00:00Z,27.1690,-82.9260,28.05,1111122 
COMPS,ioos:station:USF.COMPS:C10:1,2012-07-13T02:20:00Z,27.1690,-82.9260,28.18,1111122 
COMPS,ioos:station:USF.COMPS:C10:1,2012-07-13T02:40:00Z,27.1690,-82.9260,28.2,1111122 
COMPS,ioos:station:USF.COMPS:C10:1,2012-07-13T03:00:00Z,27.1690,-82.9260,28.11,1111122 
COMPS,ioos:station:USF.COMPS:C10:1,2012-07-13T03:20:00Z,27.1690,-82.9260,28.13,1111122 
COMPS,ioos:station:USF.COMPS:C10:1,2012-07-13T03:40:00Z,27.1690,-82.9260,28.24,1111122 
COMPS,ioos:station:USF.COMPS:C10:1,2012-07-13T04:00:00Z,27.1690,-82.9260,28.24,1111122 
COMPS,ioos:station:USF.COMPS:C10:1,2012-07-13T16:40:00Z,27.1690,-82.9260,33.0,1111122 
COMPS,ioos:station:USF.COMPS:C10:1,2012-07-13T18:00:00Z,27.1690,-82.9260,7.0,1111122 
COMPS,ioos:station:USF.COMPS:C10:1,2012-07-13T19:20:00Z,27.1690,-82.9260,7.0,1111122 
COMPS,ioos:station:USF.COMPS:C10:1,2012-07-13T20:40:00Z,27.1690,-82.9260,8.0,1111122 
COMPS,ioos:station:USF.COMPS:C10:1,2012-07-13T21:00:00Z,27.1690,-82.9260,8.0,1111122 
COMPS,ioos:station:USF.COMPS:C10:1,2012-07-14T17:00:00Z,27.1690,-82.9260,8.0,1111122 
COMPS,ioos:station:USF.COMPS:C10:1,2012-07-14T17:40:00Z,27.1690,-82.9260,8.77,1111122 
COMPS,ioos:station:USF.COMPS:C10:1,2012-07-14T18:00:00Z,27.1690,-82.9260,8.0,1111122 
COMPS,ioos:station:USF.COMPS:C10:1,2012-07-14T18:20:00Z,27.1690,-82.9260,8.0,1111122 
COMPS,ioos:station:USF.COMPS:C10:1,2012-07-14T19:00:00Z,27.1690,-82.9260,8.0,1111122 
COMPS,ioos:station:USF.COMPS:C10:1,2012-07-14T19:20:00Z,27.1690,-82.9260,7.0,1111122 
COMPS,ioos:station:USF.COMPS:C10:1,2012-07-14T19:40:00Z,27.1690,-82.9260,9.0,1111122 
COMPS,ioos:station:USF.COMPS:C10:1,2012-07-14T20:00:00Z,27.1690,-82.9260,29.3,1111122 
COMPS,ioos:station:USF.COMPS:C10:1,2012-07-14T20:20:00Z,27.1690,-82.9260,9.19,1111122 
COMPS,ioos:station:USF.COMPS:C10:1,2012-07-14T20:40:00Z,27.1690,-82.9260,29.26,1111122 
COMPS,ioos:station:USF.COMPS:C10:1,2012-07-14T21:00:00Z,27.1690,-82.9260,29.22,1111122 
COMPS,ioos:station:USF.COMPS:C10:1,2012-07-14T21:20:00Z,27.1690,-82.9260,29.14,1111122 
COMPS,ioos:station:USF.COMPS:C10:1,2012-07-14T21:40:00Z,27.1690,-82.9260,9.0,1111122 
COMPS,ioos:station:USF.COMPS:C10:1,2012-07-14T22:00:00Z,27.1690,-82.9260,8.0,1111122 
COMPS,ioos:station:USF.COMPS:C10:1,2012-07-14T22:40:00Z,27.1690,-82.9260,0.3,1111122 
COMPS,ioos:station:USF.COMPS:C10:1,2012-07-14T23:00:00Z,27.1690,-82.9260,8.0,1111122 
COMPS,ioos:station:USF.COMPS:C10:1,2012-07-14T23:20:00Z,27.1690,-82.9260,7.0,1111122 
COMPS,ioos:station:USF.COMPS:C10:1,2012-07-15T12:20:00Z,27.1690,-82.9260,7.0,1111122 
COMPS,ioos:station:USF.COMPS:C10:1,2012-07-15T16:40:00Z,27.1690,-82.9260,7.0,1111122 
COMPS,ioos:station:USF.COMPS:C10:1,2012-07-15T17:20:00Z,27.1690,-82.9260,7.0,1111122 
COMPS,ioos:station:USF.COMPS:C10:1,2012-07-15T22:00:00Z,27.1690,-82.9260,8.0,1111122 
COMPS,ioos:station:USF.COMPS:C10:1,2012-07-15T22:20:00Z,27.1690,-82.9260,7.0,1111122 
COMPS,ioos:station:USF.COMPS:C10:1,2012-07-15T22:40:00Z,27.1690,-82.9260,7.9,1111122 
COMPS,ioos:station:USF.COMPS:C10:1,2012-07-15T23:00:00Z,27.1690,-82.9260,7.0,1111122 
COMPS,ioos:station:USF.COMPS:C10:1,2012-07-16T12:20:00Z,27.1690,-82.9260,27.06,1111122 
COMPS,ioos:station:USF.COMPS:C10:1,2012-07-16T14:20:00Z,27.1690,-82.9260,6.0,1111122 
COMPS,ioos:station:USF.COMPS:C10:1,2012-07-16T14:40:00Z,27.1690,-82.9260,6.96,1111122 
COMPS,ioos:station:USF.COMPS:C10:1,2012-07-16T15:00:00Z,27.1690,-82.9260,7.1,1111122 
COMPS,ioos:station:USF.COMPS:C10:1,2012-07-16T15:20:00Z,27.1690,-82.9260,7.0,1111122 
COMPS,ioos:station:USF.COMPS:C10:1,2012-07-16T15:40:00Z,27.1690,-82.9260,7.18,1111122 
COMPS,ioos:station:USF.COMPS:C10:1,2012-07-16T16:20:00Z,27.1690,-82.9260,7.0,1111122 
COMPS,ioos:station:USF.COMPS:C10:1,2012-07-16T17:40:00Z,27.1690,-82.9260,7.0,1111122 
COMPS,ioos:station:USF.COMPS:C10:1,2012-07-16T18:00:00Z,27.1690,-82.9260,7.0,1111122 
COMPS,ioos:station:USF.COMPS:C10:1,2012-07-16T19:00:00Z,27.1690,-82.9260,8.0,1111122 
COMPS,ioos:station:USF.COMPS:C10:1,2012-07-16T19:20:00Z,27.1690,-82.9260,7.0,1111122 
COMPS,ioos:station:USF.COMPS:C10:1,2012-07-16T19:40:00Z,27.1690,-82.9260,7.0,1111122 
COMPS,ioos:station:USF.COMPS:C10:1,2012-07-16T21:00:00Z,27.1690,-82.9260,7.0,1111122 
COMPS,ioos:station:USF.COMPS:C10:1,2012-07-16T21:40:00Z,27.1690,-82.9260,7.0,1111122 
COMPS,ioos:station:USF.COMPS:C10:1,2012-07-18T13:20:00Z,27.1690,-82.9260,28.15,1111122 
COMPS,ioos:station:USF.COMPS:C10:1,2012-07-18T13:40:00Z,27.1690,-82.9260,28.18,1111122 
COMPS,ioos:station:USF.COMPS:C10:1,2012-07-18T14:00:00Z,27.1690,-82.9260,28.13,1111122 
COMPS,ioos:station:USF.COMPS:C10:1,2012-07-18T14:20:00Z,27.1690,-82.9260,28.21,1111122 
COMPS,ioos:station:USF.COMPS:C10:1,2012-07-18T14:40:00Z,27.1690,-82.9260,28.29,1111122 
COMPS,ioos:station:USF.COMPS:C10:1,2012-07-18T15:00:00Z,27.1690,-82.9260,8.0,1111122 
COMPS,ioos:station:USF.COMPS:C10:1,2012-07-18T15:20:00Z,27.1690,-82.9260,8.0,1111122 
COMPS,ioos:station:USF.COMPS:C10:1,2012-07-18T15:40:00Z,27.1690,-82.9260,28.27,1111122 
COMPS,ioos:station:USF.COMPS:C10:1,2012-07-18T16:00:00Z,27.1690,-82.9260,8.0,1111122 
COMPS,ioos:station:USF.COMPS:C10:1,2012-07-18T16:20:00Z,27.1690,-82.9260,8.0,1111122 
COMPS,ioos:station:USF.COMPS:C10:1,2012-07-18T18:40:00Z,27.1690,-82.9260,8.0,1111122 
COMPS,ioos:station:USF.COMPS:C10:1,2012-07-18T20:20:00Z,27.1690,-82.9260,8.7,1111122 
COMPS,ioos:station:USF.COMPS:C10:1,2012-07-18T20:40:00Z,27.1690,-82.9260,3.0,1111122 
COMPS,ioos:station:USF.COMPS:C10:1,2012-07-18T21:20:00Z,27.1690,-82.9260,8.0,1111122 
COMPS,ioos:station:USF.COMPS:C10:1,2012-07-18T21:40:00Z,27.1690,-82.9260,8.0,1111122 
COMPS,ioos:station:USF.COMPS:C10:1,2012-07-19T13:20:00Z,27.1690,-82.9260,28.47,1111122 
COMPS,ioos:station:USF.COMPS:C10:1,2012-07-19T13:40:00Z,27.1690,-82.9260,28.43,1111122 
COMPS,ioos:station:USF.COMPS:C10:1,2012-07-19T14:20:00Z,27.1690,-82.9260,8.0,1111122 
COMPS,ioos:station:USF.COMPS:C10:1,2012-07-19T14:40:00Z,27.1690,-82.9260,8.0,1111122 
COMPS,ioos:station:USF.COMPS:C10:1,2012-07-19T15:00:00Z,27.1690,-82.9260,8.0,1111122 
COMPS,ioos:station:USF.COMPS:C10:1,2012-07-19T15:20:00Z,27.1690,-82.9260,8.0,1111122 
COMPS,ioos:station:USF.COMPS:C10:1,2012-07-19T15:40:00Z,27.1690,-82.9260,8.7,1111122 
COMPS,ioos:station:USF.COMPS:C10:1,2012-07-19T16:40:00Z,27.1690,-82.9260,8.0,1111122 
COMPS,ioos:station:USF.COMPS:C10:1,2012-07-19T17:00:00Z,27.1690,-82.9260,8.0,1111122 
COMPS,ioos:station:USF.COMPS:C10:1,2012-07-19T17:40:00Z,27.1690,-82.9260,8.0,1111122 
COMPS,ioos:station:USF.COMPS:C10:1,2012-07-19T18:20:00Z,27.1690,-82.9260,8.0,1111122 
COMPS,ioos:station:USF.COMPS:C10:1,2012-07-19T19:20:00Z,27.1690,-82.9260,7.0,1111122 
COMPS,ioos:station:USF.COMPS:C10:1,2012-07-19T20:20:00Z,27.1690,-82.9260,9.0,1111122 
COMPS,ioos:station:USF.COMPS:C10:1,2012-07-19T20:40:00Z,27.1690,-82.9260,8.98,1111122 
COMPS,ioos:station:USF.COMPS:C10:1,2012-07-19T21:00:00Z,27.1690,-82.9260,9.0,1111122 
COMPS,ioos:station:USF.COMPS:C10:1,2012-07-19T21:20:00Z,27.1690,-82.9260,29.05,1111122 
COMPS,ioos:station:USF.COMPS:C10:1,2012-07-19T21:40:00Z,27.1690,-82.9260,29.07,1111122 
COMPS,ioos:station:USF.COMPS:C10:1,2012-07-19T22:00:00Z,27.1690,-82.9260,29.01,1111122 
COMPS,ioos:station:USF.COMPS:C10:1,2012-07-19T22:20:00Z,27.1690,-82.9260,28.96,1111122 
COMPS,ioos:station:USF.COMPS:C10:1,2012-07-19T22:40:00Z,27.1690,-82.9260,28.9,1111122 
COMPS,ioos:station:USF.COMPS:C10:1,2012-07-19T23:00:00Z,27.1690,-82.9260,29.14,1111122 
COMPS,ioos:station:USF.COMPS:C10:1,2012-07-19T23:20:00Z,27.1690,-82.9260,8.0,1111122 
COMPS,ioos:station:USF.COMPS:C10:1,2012-07-19T23:40:00Z,27.1690,-82.9260,8.0,1111122 
COMPS,ioos:station:USF.COMPS:C10:1,2012-07-20T13:20:00Z,27.1690,-82.9260,8.17,1111122 
COMPS,ioos:station:USF.COMPS:C10:1,2012-07-20T13:40:00Z,27.1690,-82.9260,8.17,1111122 
COMPS,ioos:station:USF.COMPS:C10:1,2012-07-20T14:00:00Z,27.1690,-82.9260,8.17,1111122 
COMPS,ioos:station:USF.COMPS:C10:1,2012-07-20T14:20:00Z,27.1690,-82.9260,8.3,1111122 
COMPS,ioos:station:USF.COMPS:C10:1,2012-07-20T15:40:00Z,27.1690,-82.9260,8.0,1111122 
COMPS,ioos:station:USF.COMPS:C10:1,2012-07-20T16:40:00Z,27.1690,-82.9260,6.0,1111122 
COMPS,ioos:station:USF.COMPS:C10:1,2012-07-20T18:20:00Z,27.1690,-82.9260,8.6,1111122 
COMPS,ioos:station:USF.COMPS:C10:1,2012-07-20T18:40:00Z,27.1690,-82.9260,8.0,1111122 
COMPS,ioos:station:USF.COMPS:C10:1,2012-07-20T19:00:00Z,27.1690,-82.9260,29.19,1111122 
COMPS,ioos:station:USF.COMPS:C10:1,2012-07-20T19:20:00Z,27.1690,-82.9260,29.11,1111122 
COMPS,ioos:station:USF.COMPS:C10:1,2012-07-20T19:40:00Z,27.1690,-82.9260,29.16,1111122 
COMPS,ioos:station:USF.COMPS:C10:1,2012-07-20T20:00:00Z,27.1690,-82.9260,29.17,1111122 
COMPS,ioos:station:USF.COMPS:C10:1,2012-07-20T20:40:00Z,27.1690,-82.9260,29.3,1111122 
COMPS,ioos:station:USF.COMPS:C10:1,2012-07-20T21:00:00Z,27.1690,-82.9260,29.23,1111122 
COMPS,ioos:station:USF.COMPS:C10:1,2012-07-21T18:00:00Z,27.1690,-82.9260,7.0,1111122 
COMPS,ioos:station:USF.COMPS:C10:1,2012-07-21T20:20:00Z,27.1690,-82.9260,29.0,1111122 
COMPS,ioos:station:USF.COMPS:C10:1,2012-07-21T20:40:00Z,27.1690,-82.9260,9.0,1111122 
COMPS,ioos:station:USF.COMPS:C10:1,2012-07-21T21:20:00Z,27.1690,-82.9260,29.68,1111122 
COMPS,ioos:station:USF.COMPS:C10:1,2012-07-21T21:40:00Z,27.1690,-82.9260,29.69,1111122 
COMPS,ioos:station:USF.COMPS:C10:1,2012-07-21T22:00:00Z,27.1690,-82.9260,29.78,1111122 
COMPS,ioos:station:USF.COMPS:C10:1,2012-07-21T22:20:00Z,27.1690,-82.9260,29.76,1111122 
COMPS,ioos:station:USF.COMPS:C10:1,2012-07-21T22:40:00Z,27.1690,-82.9260,29.71,1111122 
COMPS,ioos:station:USF.COMPS:C10:1,2012-07-21T23:20:00Z,27.1690,-82.9260,28.09,1111122 
COMPS,ioos:station:USF.COMPS:C10:1,2012-07-21T23:40:00Z,27.1690,-82.9260,28.09,1111122 
COMPS,ioos:station:USF.COMPS:C10:1,2012-07-22T00:00:00Z,27.1690,-82.9260,28.09,1111122 
COMPS,ioos:station:USF.COMPS:C10:1,2012-07-22T16:00:00Z,27.1690,-82.9260,7.0,1111122 
COMPS,ioos:station:USF.COMPS:C10:1,2012-07-22T17:20:00Z,27.1690,-82.9260,3.0,1111122 
COMPS,ioos:station:USF.COMPS:C10:1,2012-07-22T17:40:00Z,27.1690,-82.9260,29.0,1111122 
COMPS,ioos:station:USF.COMPS:C10:1,2012-07-22T18:00:00Z,27.1690,-82.9260,9.59,1111122 
COMPS,ioos:station:USF.COMPS:C10:1,2012-07-22T18:20:00Z,27.1690,-82.9260,9.0,1111122 
COMPS,ioos:station:USF.COMPS:C10:1,2012-07-22T18:40:00Z,27.1690,-82.9260,29.0,1111122 
COMPS,ioos:station:USF.COMPS:C10:1,2012-07-22T19:00:00Z,27.1690,-82.9260,9.0,1111122 
COMPS,ioos:station:USF.COMPS:C10:1,2012-07-22T19:20:00Z,27.1690,-82.9260,9.0,1111122 
COMPS,ioos:station:USF.COMPS:C10:1,2012-07-22T20:00:00Z,27.1690,-82.9260,29.51,1111122 
COMPS,ioos:station:USF.COMPS:C10:1,2012-07-22T20:20:00Z,27.1690,-82.9260,29.36,1111122 
COMPS,ioos:station:USF.COMPS:C10:1,2012-07-24T13:40:00Z,27.1690,-82.9260,8.0,1111122 
COMPS,ioos:station:USF.COMPS:C10:1,2012-07-24T14:20:00Z,27.1690,-82.9260,28.0,1111122 
COMPS,ioos:station:USF.COMPS:C10:1,2012-07-24T14:40:00Z,27.1690,-82.9260,28.63,1111122 
COMPS,ioos:station:USF.COMPS:C10:1,2012-07-24T15:20:00Z,27.1690,-82.9260,8.63,1111122 
COMPS,ioos:station:USF.COMPS:C10:1,2012-07-24T15:40:00Z,27.1690,-82.9260,28.58,1111122 
COMPS,ioos:station:USF.COMPS:C10:1,2012-07-24T16:00:00Z,27.1690,-82.9260,8.0,1111122 
COMPS,ioos:station:USF.COMPS:C10:1,2012-07-24T16:20:00Z,27.1690,-82.9260,28.72,1111122 
COMPS,ioos:station:USF.COMPS:C10:1,2012-07-24T16:40:00Z,27.1690,-82.9260,8.0,1111122 
COMPS,ioos:station:USF.COMPS:C10:1,2012-07-24T17:00:00Z,27.1690,-82.9260,8.0,1111122 
COMPS,ioos:station:USF.COMPS:C10:1,2012-07-24T17:20:00Z,27.1690,-82.9260,7.0,1111122 
COMPS,ioos:station:USF.COMPS:C10:1,2012-07-24T17:40:00Z,27.1690,-82.9260,8.0,1111122 
COMPS,ioos:station:USF.COMPS:C10:1,2012-07-24T18:00:00Z,27.1690,-82.9260,8.0,1111122 
COMPS,ioos:station:USF.COMPS:C10:1,2012-07-24T18:20:00Z,27.1690,-82.9260,28.0,1111122 
COMPS,ioos:station:USF.COMPS:C10:1,2012-07-24T18:40:00Z,27.1690,-82.9260,7.0,1111122 
COMPS,ioos:station:USF.COMPS:C10:1,2012-07-24T19:00:00Z,27.1690,-82.9260,7.0,1111122 
COMPS,ioos:station:USF.COMPS:C10:1,2012-07-24T19:20:00Z,27.1690,-82.9260,8.0,1111122 
COMPS,ioos:station:USF.COMPS:C10:1,2012-07-24T20:00:00Z,27.1690,-82.9260,7.0,1111122 
COMPS,ioos:station:USF.COMPS:C10:1,2012-07-24T20:40:00Z,27.1690,-82.9260,7.0,1111122 
COMPS,ioos:station:USF.COMPS:C10:1,2012-07-24T21:20:00Z,27.1690,-82.9260,8.0,1111122 
COMPS,ioos:station:USF.COMPS:C10:1,2012-07-24T23:00:00Z,27.1690,-82.9260,37.0,1111122 
COMPS,ioos:station:USF.COMPS:C10:1,2012-07-25T13:20:00Z,27.1690,-82.9260,28.25,1111122 
COMPS,ioos:station:USF.COMPS:C10:1,2012-07-25T13:40:00Z,27.1690,-82.9260,28.3,1111122 
COMPS,ioos:station:USF.COMPS:C10:1,2012-07-25T14:00:00Z,27.1690,-82.9260,28.3,1111122 
COMPS,ioos:station:USF.COMPS:C10:1,2012-07-25T14:20:00Z,27.1690,-82.9260,28.44,1111122 
COMPS,ioos:station:USF.COMPS:C10:1,2012-07-25T14:40:00Z,27.1690,-82.9260,28.45,1111122 
COMPS,ioos:station:USF.COMPS:C10:1,2012-07-25T15:20:00Z,27.1690,-82.9260,28.39,1111122 
COMPS,ioos:station:USF.COMPS:C10:1,2012-07-25T15:40:00Z,27.1690,-82.9260,28.5,1111122 
COMPS,ioos:station:USF.COMPS:C10:1,2012-07-25T16:00:00Z,27.1690,-82.9260,28.47,1111122 
COMPS,ioos:station:USF.COMPS:C10:1,2012-07-25T16:20:00Z,27.1690,-82.9260,8.57,1111122 